www.pogodaiklimat.ru

Погода и климат >> Архив погоды >> Дания >> Хорсенс


ПОГОДА в Хорсенсе

  • Прогноз погоды в Хорсенсе
  • Монитор погоды в Хорсенсе

АРХИВ ПОГОДЫ в Хорсенсе

Время (UTC), дата Ветер
(напр.,м/с)
 
Видим.   Явления Облачность Т
(С)
Тd
(С)
f
(%)
Тe
(С)
Тes
(С)
Комфортность P
(гПа)
Po
(гПа)
Тmin
(С)
Tmax
(С)
R
(мм)
R24
(мм)
S
(см)
01 10.09 З 2 н/о н/о +12.5 +12.3 99 +12 +12 1011.0 1008.1 2
02 10.09 З 2 н/о н/о +12.5 +12.3 99 +11 +11 1010.6 1007.7 2
03 10.09 З 3 н/о н/о +12.9 +12.7 99 +12 +12 1010.2 1007.4 6
04 10.09 СЗ 3 н/о н/о +13.0 +12.8 99 +12 +12 1009.5 1006.7 4
05 10.09 СЗ 3 н/о н/о +13.3 +12.9 97 +12 +12 1009.6 1006.7 1
06 10.09 З 3 н/о н/о +13.3 +12.9 97 +12 +12 1009.7 1006.8 +12.2 +13.5 6
07 10.09 З 2 н/о н/о +13.4 +13.1 98 +13 +13 1009.9 1007.0 0.7
08 10.09 З 2 н/о н/о +14.0 +13.7 98 +13 +13 1009.8 1007.0 1
09 10.09 З 2 н/о н/о +14.8 +14.4 97 +15 +15 1009.9 1007.1 3
10 10.09 З 2 н/о н/о +14.9 +14.3 96 +14 +14 1010.0 1007.2 0.5
11 10.09 СЗ 3 н/о н/о +15.0 +14.6 97 +14 +14 1010.2 1007.4 0.9
12 10.09 СЗ 3 н/о н/о +15.0 +14.1 94 +14 +14 1010.7 1007.8 2
13 10.09 З 3 н/о н/о +14.5 +13.6 94 +13 +13 1011.2 1008.3 0.5
14 10.09 З 3 н/о н/о +14.5 +13.5 94 +14 +14 1011.6 1008.8 0.4
15 10.09 З 3
{9}
н/о н/о +14.4 +13.2 92 +13 +13 1011.9 1009.0 1
16 10.09 З 2 н/о н/о +14.4 +13.3 93 +14 +14 1012.0 1009.1 0.2
17 10.09 З 3 н/о н/о +14.6 +12.9 90 +14 +14 1012.3 1009.4
18 10.09 З 3
{9}
н/о н/о +14.0 +12.5 91 +13 +13 1012.8 1010.0 +13.2 +15.1 0.2
19 10.09 З 3 н/о н/о +14.1 +12.5 90 +13 +13 1013.5 1010.6
20 10.09 З 3 н/о н/о +13.8 +12.4 91 +13 +13 1014.0 1011.1
21 10.09 З 3 н/о н/о +13.7 +12.2 91 +12 +12 1014.2 1011.3
22 10.09 З 3 н/о н/о +12.5 +11.5 94 +11 +11 1014.5 1011.6
23 10.09 З 2 н/о н/о +11.8 +11.0 95 +11 +11 1015.0 1012.1
00 11.09 ЮЗ 2 н/о н/о +11.2 +10.6 96 +10 +10 1015.2 1012.3
01 11.09 ЮЗ 2 н/о н/о +10.8 +10.2 96 +10 +10 1015.6 1012.7
02 11.09 ЮЗ 2 н/о н/о +10.0 +9.6 97 +9 +9 1015.7 1012.8
03 11.09 штиль 0 н/о н/о +8.1 +7.7 97 +7 +7 1015.6 1012.7
04 11.09 штиль 0 н/о н/о +7.4 +7.3 99 +6 +6 1015.4 1012.5
05 11.09 штиль 0 н/о н/о +8.7 +8.6 99 +8 +8 1015.5 1012.5
06 11.09 Ю 2 н/о н/о +10.6 +10.1 97 +9 +9 1015.3 1012.4 +7.1 +14.2
07 11.09 Ю 4 н/о н/о +13.6 +11.5 87 +12 +12 1014.9 1012.1
08 11.09 Ю 4 н/о н/о +14.9 +12.5 86 +14 +14 1014.7 1011.9
09 11.09 Ю 5 н/о н/о +16.5 +13.2 81 +16 +16 1014.5 1011.7
10 11.09 Ю 5 н/о н/о +14.8 +13.2 90 +13 +13 1014.2 1011.3
11 11.09 Ю 6 н/о н/о +16.6 +12.4 76 +16 +16 1013.6 1010.7
12 11.09 Ю 5
{11}
н/о н/о +14.6 +12.9 90 +13 +13 1013.8 1011.0 0.6
13 11.09 Ю 6 н/о н/о +14.0 +12.8 92 +12 +12 1013.5 1010.7 2
14 11.09 Ю 6 н/о н/о +14.2 +13.4 95 +12 +12 1012.7 1009.9 2
15 11.09 Ю 5
{11}
н/о н/о +13.9 +13.4 97 +12 +12 1012.7 1009.8 5
16 11.09 Ю 6 н/о н/о +14.2 +13.6 96 +12 +12 1012.2 1009.4 0.9
17 11.09 Ю 5 н/о н/о +14.2 +13.8 97 +12 +12 1012.1 1009.2 0.4
18 11.09 Ю 5
{11}
н/о н/о +14.3 +14.0 98 +13 +13 1012.6 1009.8 +10.6 +16.8 3
19 11.09 ЮЗ 2 н/о н/о +14.6 +14.3 98 +14 +14 1013.5 1010.7 0.2
20 11.09 ЮЗ 2 н/о н/о +14.2 +13.8 97 +14 +14 1014.4 1011.5
21 11.09 ЮЗ 2 н/о н/о +13.8 +13.4 97 +13 +13 1015.1 1012.2 0.2
22 11.09 ЮЗ 2 н/о н/о +12.8 +12.2 96 +12 +12 1015.7 1012.8
23 11.09 ЮЗ 2 н/о н/о +11.8 +11.3 97 +11 +11 1016.4 1013.5
00 12.09 ЮЗ 1 н/о н/о +10.8 +10.4 97 +10 +10 1017.3 1014.4
01 12.09 ЮЗ 1 н/о н/о +10.1 +9.9 99 +9 +9 1017.8 1014.9
02 12.09 штиль 0 н/о н/о +8.3 +8.2 99 +7 +7 1018.2 1015.3
03 12.09 штиль 0 н/о н/о +7.5 +7.4 99 +6 +6 1018.6 1015.6
04 12.09 штиль 0 н/о н/о +7.9 +7.8 99 +7 +7 1018.9 1016.0
05 12.09 ЮЗ 1 н/о н/о +8.8 +8.7 99 +9 +9 1019.6 1016.7
06 12.09 ЮЗ 1 н/о н/о +11.9 +11.7 99 +12 +12 1020.0 1017.1 +7.3 +14.7
07 12.09 ЮЗ 2 н/о н/о +14.0 +12.1 88 +14 +14 1020.5 1017.6
08 12.09 ЮЗ 3 н/о н/о +16.2 +13.2 82 +16 +16 1020.8 1018.0
09 12.09 ЮЗ 4 н/о н/о +17.0 +12.1 73 +17 +17 1021.2 1018.4
10 12.09 ЮЗ 3 н/о н/о +14.1 +11.8 86 +13 +13 1021.9 1019.0
11 12.09 З 5 н/о н/о +17.0 +12.6 75 +16 +16 1021.7 1018.9
12 12.09 З 5
{10}
н/о н/о +18.0 +11.4 65 +18 +18 1022.0 1019.1
13 12.09 З 4 н/о н/о +17.7 +10.9 64 +17 +17 1022.2 1019.3
14 12.09 ЮЗ 5 н/о н/о +18.1 +11.7 66 +18 +18 1022.2 1019.4
15 12.09 З 5-11
{11}
н/о н/о +17.2 +10.4 64 +17 +17 1022.0 1019.2
16 12.09 ЮЗ 3 н/о н/о +16.7 +11.4 71 +16 +16 1021.8 1019.0
17 12.09 ЮЗ 4 н/о н/о +16.2 +11.6 74 +16 +16 1021.9 1019.0
18 12.09 ЮЗ 3
{11}
н/о н/о +15.5 +12.4 82 +15 +15 1021.9 1019.0 +11.8 +18.7
19 12.09 ЮЗ 3 н/о н/о +15.4 +12.6 83 +15 +15 1022.0 1019.1
20 12.09 ЮЗ 2 н/о н/о +15.2 +12.3 83 +15 +15 1021.7 1018.8
21 12.09 ЮЗ 3 н/о н/о +15.2 +12.5 84 +15 +15 1021.4 1018.5
22 12.09 ЮЗ 3 н/о н/о +14.3 +13.2 93 +13 +13 1021.0 1018.2
23 12.09 ЮЗ 2 н/о н/о +13.9 +13.5 97 +13 +13 1020.3 1017.5
00 13.09 штиль 0 н/о н/о +14.0 +13.8 99 +14 +14 1019.4 1016.5 0.4
01 13.09 С 1 н/о н/о +13.9 +13.8 99 +15 +15 1019.0 1016.1 4
02 13.09 СЗ 3 н/о н/о +13.1 +13.0 99 +12 +12 1020.0 1017.1 2
03 13.09 СЗ 3 н/о н/о +13.1 +12.6 97 +12 +12 1020.7 1017.8 6
04 13.09 З 2 н/о н/о +12.3 +11.5 95 +12 +12 1021.7 1018.8
05 13.09 З 2 н/о н/о +11.4 +10.8 96 +10 +10 1022.8 1019.9
06 13.09 З 2 н/о н/о +12.1 +10.8 92 +11 +11 1023.7 1020.8 +11.2 +15.6
07 13.09 З 3 н/о н/о +13.2 +10.6 84 +12 +12 1024.7 1021.8
08 13.09 З 3 н/о н/о +14.4 +10.3 76 +13 +13 1025.5 1022.6
09 13.09 З 4-9
{9}
н/о н/о +15.6 +9.7 68 +15 +15 1026.6 1023.7
10 13.09 СЗ 4 н/о н/о +16.0 +9.0 63 +15 +15 1027.3 1024.4
11 13.09 З 5 н/о н/о +16.2 +8.0 58 +15 +15 1027.7 1024.8
12 13.09 З 5
{10}
н/о н/о +16.5 +7.7 56 +16 +16 1028.4 1025.6
13 13.09 З 3 н/о н/о +16.8 +7.7 55 +17 +17 1029.0 1026.2
14 13.09 З 5 н/о н/о +16.3 +8.5 60 +15 +15 1029.5 1026.6
15 13.09 З 4
{11}
н/о н/о +15.9 +8.2 60 +15 +15 1029.7 1026.8
16 13.09 З 4 н/о н/о +14.3 +8.3 67 +13 +13 1030.1 1027.2
17 13.09 З 4 н/о н/о +13.7 +8.2 69 +12 +12 1030.7 1027.8
18 13.09 З 2
{11}
н/о н/о +11.8 +8.4 80 +11 +11 1031.1 1028.1 +11.8 +17.0
19 13.09 З 1 н/о н/о +10.6 +8.3 86 +10 +10 1031.3 1028.4
20 13.09 З 1 н/о н/о +9.0 +8.0 93 +8 +8 1031.9 1028.9
21 13.09 ЮЗ 1 н/о н/о +8.6 +7.3 92 +8 +8 1032.3 1029.4
22 13.09 ЮЗ 2 н/о н/о +7.7 +6.8 94 +6 +6 1032.6 1029.6
23 13.09 ЮЗ 2 н/о н/о +7.2 +6.4 95 +5 +5 1032.5 1029.5
00 14.09 ЮЗ 2 н/о н/о +7.2 +6.5 95 +5 +5 1032.5 1029.5
01 14.09 З 2 н/о н/о +7.5 +6.7 95 +5 +5 1032.7 1029.7
02 14.09 З 2 н/о н/о +8.0 +6.9 93 +6 +6 1032.4 1029.4
03 14.09 З 2 н/о н/о +7.7 +6.8 94 +6 +6 1032.3 1029.3
04 14.09 З 2 н/о н/о +7.5 +6.8 95 +6 +6 1032.1 1029.1
05 14.09 ЮЗ 1 н/о н/о +7.2 +6.4 95 +6 +6 1032.2 1029.2
06 14.09 ЮЗ 1 н/о н/о +8.4 +7.7 95 +9 +9 1032.2 1029.2 +6.1 +11.7
07 14.09 З 1 н/о н/о +12.3 +9.3 82 +12 +12 1032.4 1029.4
08 14.09 З 3 н/о н/о +13.7 +9.7 77 +13 +13 1032.4 1029.5
09 14.09 З 4 н/о н/о +14.7 +9.4 71 +14 +14 1032.3 1029.4
10 14.09 З 4 н/о н/о +16.2 +9.9 66 +15 +15 1032.0 1029.1
11 14.09 ЮЗ 5 н/о н/о +16.6 +8.1 57 +16 +16 1031.5 1028.6
12 14.09 ЮЗ 5 н/о н/о +17.1 +8.1 55 +16 +16 1030.7 1027.8
13 14.09 ЮЗ 5 н/о н/о +17.5 +7.3 51 +17 +17 1029.9 1027.0
14 14.09 ЮЗ 4 н/о н/о +16.8 +7.9 56 +16 +16 1029.3 1026.4
15 14.09 ЮЗ 5
{9}
н/о н/о +15.5 +7.4 58 +14 +14 1028.4 1025.5
16 14.09 ЮЗ 4 н/о н/о +14.9 +8.0 63 +14 +14 1027.4 1024.5
17 14.09 ЮЗ 4 н/о н/о +14.4 +8.5 68 +13 +13 1026.8 1023.9
18 14.09 Ю 4
{9}
н/о н/о +13.4 +8.5 72 +12 +12 1025.9 1023.0 +8.5 +17.8
19 14.09 Ю 4 н/о н/о +13.1 +8.9 76 +11 +11 1024.7 1021.8
20 14.09 Ю 4 н/о н/о +12.5 +9.1 80 +11 +11 1023.8 1020.9
21 14.09 Ю 4 н/о н/о +12.5 +9.5 82 +11 +11 1022.6 1019.7
22 14.09 ЮЗ 5 н/о н/о +12.5 +9.9 84 +10 +10 1021.4 1018.5
23 14.09 Ю 3 н/о н/о +12.4 +10.5 88 +11 +11 1020.1 1017.2
00 15.09 ЮЗ 6-11
{11}
н/о н/о +14.3 +11.0 81 +12 +12 1018.7 1015.8
01 15.09 ЮЗ 6 н/о н/о +14.2 +11.1 82 +12 +12 1017.1 1014.3
02 15.09 ЮЗ 5 н/о н/о +14.4 +11.4 82 +13 +13 1015.8 1013.0
03 15.09 ЮЗ 5
{11}
н/о н/о +14.6 +11.4 81 +13 +13 1014.4 1011.5
04 15.09 ЮЗ 6 н/о н/о +15.1 +11.7 80 +14 +14 1013.5 1010.6
05 15.09 ЮЗ 6 н/о н/о +14.6 +12.9 90 +13 +13 1013.0 1010.1
06 15.09 ЮЗ 4
{12}
н/о н/о +14.1 +13.5 96 +13 +13 1012.4 1009.5 +12.1 +15.8 0.4
07 15.09 З 4 н/о н/о +14.5 +13.9 96 +13 +13 1012.0 1009.1 0.3
08 15.09 З 3 н/о н/о +13.2 +12.2 94 +12 +12 1012.9 1010.0 0.2
09 15.09 З 4
{11}
н/о н/о +13.9 +11.2 84 +13 +13 1013.2 1010.3 0.5
10 15.09 З 6 н/о н/о +15.3 +10.4 73 +14 +14 1013.3 1010.4
11 15.09 З 5 н/о н/о +15.3 +8.0 62 +14 +14 1013.3 1010.4
12 15.09 З 6-12
{14}
н/о н/о +15.9 +6.9 55 +15 +15 1013.6 1010.7
13 15.09 З 7 н/о н/о +15.8 +6.3 53 +14 +14 1013.6 1010.7
14 15.09 З 7 н/о н/о +13.8 +5.6 58 +12 +12 1014.4 1011.5
15 15.09 З 7-12
{15}
н/о н/о +13.7 +7.5 66 +12 +12 1014.5 1011.6
16 15.09 З 7 н/о н/о +13.4 +7.1 66 +11 +11 1014.3 1011.4
17 15.09 З 5 н/о н/о +12.8 +7.2 69 +11 +11 1014.3 1011.4
18 15.09 З 5
{15}
н/о н/о +12.1 +6.8 70 +10 +10 1014.4 1011.5 +12.0 +16.5
19 15.09 З 4 н/о н/о +12.2 +5.6 64 +10 +10 1014.5 1011.6
20 15.09 З 4 н/о н/о +11.4 +6.7 73 +9 +9 1014.6 1011.7
21 15.09 З 5-10
{13}
н/о н/о +11.6 +6.8 72 +9 +9 1014.4 1011.6
22 15.09 З 4 н/о н/о +11.7 +6.5 70 +10 +10 1014.9 1012.0
23 15.09 З 3 н/о н/о +11.2 +7.0 75 +9 +9 1015.4 1012.5
00 16.09 З 3
{13}
н/о н/о +11.3 +7.3 76 +10 +10 1015.6 1012.7
01 16.09 З 3 н/о н/о +10.9 +6.4 74 +9 +9 1015.9 1013.0
02 16.09 ЮЗ 3 н/о н/о +10.1 +6.4 78 +8 +8 1016.1 1013.2
03 16.09 З 3 н/о н/о +10.3 +5.7 73 +9 +9 1015.8 1012.9
04 16.09 З 3 н/о н/о +10.3 +5.7 73 +8 +8 1015.6 1012.7
05 16.09 З 3 н/о н/о +10.0 +6.0 76 +8 +8 1015.3 1012.4
06 16.09 З 2 н/о н/о +10.2 +5.4 72 +9 +9 1015.5 1012.6 +9.5 +12.4
07 16.09 З 3 н/о н/о +11.4 +5.7 68 +10 +10 1015.8 1012.9
08 16.09 З 5 н/о н/о +12.8 +5.0 59 +11 +11 1015.9 1013.0
09 16.09 З 5
{11}
н/о н/о +13.2 +5.3 59 +11 +11 1015.9 1013.0
10 16.09 З 5 н/о н/о +14.0 +6.6 61 +12 +12 1015.7 1012.8
11 16.09 З 5 н/о н/о +14.8 +8.1 64 +14 +14 1015.6 1012.7
12 16.09 З 5
{11}
н/о н/о +15.0 +7.2 60 +14 +14 1015.5 1012.6
13 16.09 З 5 н/о н/о +15.0 +6.4 56 +14 +14 1015.3 1012.5
14 16.09 З 5 н/о н/о +14.8 +7.2 60 +13 +13 1015.1 1012.3
15 16.09 З 5
{12}
н/о н/о +13.8 +7.0 64 +12 +12 1015.0 1012.1
16 16.09 З 5 н/о н/о +13.6 +6.3 61 +12 +12 1014.9 1012.0
17 16.09 З 3 н/о н/о +11.7 +7.4 75 +10 +10 1014.9 1012.0
18 16.09 З 2
{12}
н/о н/о +10.6 +7.9 83 +10 +10 1014.9 1011.9 +9.7 +16.1
19 16.09 З 2 н/о н/о +9.2 +7.6 90 +8 +8 1014.6 1011.7
20 16.09 З 2 н/о н/о +9.1 +7.2 88 +8 +8 1014.3 1011.3
21 16.09 З 2 н/о н/о +9.2 +7.3 88 +8 +8 1013.8 1010.9
22 16.09 З 2 н/о н/о +9.3 +8.0 92 +8 +8 1013.4 1010.4
23 16.09 ЮЗ 2 н/о н/о +8.7 +7.9 95 +7 +7 1013.1 1010.2 0.4
00 17.09 ЮЗ 3 н/о н/о +9.0 +8.1 94 +7 +7 1012.7 1009.7 0.4
01 17.09 ЮЗ 2 н/о н/о +9.0 +8.3 95 +7 +7 1012.1 1009.2

 

Местоположение метеостанции Хорсенс (Дания): широта 55.87 долгота 9.79 высота над уровнем моря 24 м.

В архиве по умолчанию представлена погода в Хорсенсе за последнюю неделю. Архивные данные за месяц целиком и за предыдущие месяцы, начиная с января 2011 года, Вы можете получить, выбрав интересующий диапазон дат из раскрывающегося списка и нажав кнопку "Ввод!".


*Определитесь, кто Вы:
робот инопланетянин человек

Внимание! Время в таблицах - всемирное. Для получения местного времени необходимо прибавить поправку, которая равна 1 ч.

Смотрите также архив погоды в соседних городах и на ближайших метеорологических станциях:

Погода в Орхусе (Дания) (32 км)
Погода в Биллунде (Дания) (42 км)
Погода в Исенваде (Дания) (45 км)
Погода в Исенваде (Дания) (45 км)
Погода на Мысе Sletterhage (Дания) (52 км)
Погода в Оденсе (Дания) (55 км)
Погода в Вамдрупе (Дания) (57 км)
Погода в Аскове (Дания) (62 км)
Погода в Карупе (Дания) (63 км)
Погода на Мысе Roesnaes (Дания) (69 км)

Пояснения к столбцам:

Ветер - указаны скорость ветра в м/с - средняя за 10 мин, порывы в срок и между сроками (в фигурных скобках) и направление, откуда дует ветер: С - северный, СВ - северо-восточный, В - восточный, ЮВ - юго-восточный, Ю - южный, ЮЗ - юго-западный, З - западный, СЗ - северо-западный.
Видимость - горизонтальная дальность видимости в метрах или километрах. При видимости от 1 до 10 км при отсутствии осадков обычно наблюдается дымка, при ухудшении видимости до 1 км и менее - туман. В сухую погоду видимость может ухудшаться дымом, пылью или мглою.
Явления - указаны атмосферные явления, наблюдавшиеся в срок или в последний час перед сроком; фигурными скобками обозначены явления, наблюдавшиеся между сроками (за 1-3 часа до срока); квадратными скобками обозначены град или гололедные отложения с указанием их диаметра в мм.
Облачность - указаны через наклонную черту общая и нижняя облачность в баллах и высота нижней границы облаков в метрах; квадратными скобками обозначены формы облаков: Ci - перистые, Cs - перисто-слоистые, Cc - перисто-кучевые, Ac - высококучевые, As - высокослоистые, Sc - слоисто-кучевые, Ns - слоисто-дождевые, Cu - кучевые, Cb - кучево-дождевые. Подробнее классификацию облаков см. в Атласе облаков (PDF).
T - Температура воздуха - температура, измеренная на высоте 2 м над землей.
Td - Температура точки росы - температура, при понижении до которой содержащийся в воздухе водяной пар достигнет насыщения.
f - Относительная влажность воздуха - влажноcть воздуха, измеренная на высоте 2 м над землей.
Te - Эффективная температура - температура, которую ощущает одетый по сезону человек в тени. Характеристика душности погоды. При расчете учитывается влияние влажности воздуха и скорости ветра на теплоощущения человека.
Tes - Эффективная температура на солнце - температура, которую ощущает человек, с поправкой на солнечный нагрев. Характеристика знойности погоды. Зависит от высоты солнца над горизонтом, облачности и скорости ветра. Ночью, в пасмурную погоду, а также при ветре 12 м/с и более поправка равна нулю.
P - Атмосферное давление - приведенное к уровню моря атмосферное давление.
Po - Атмосферное давление - измеренное на уровне метеостанции атмосферное давление.
Tmin - Минимальная температура - минимум температуры воздуха на высоте 2 м над землей.
Tmax - Максимальная температура - максимум температуры воздуха на высоте 2 м над землей.
R - Количество осадков - Количество выпавших осадков за период времени, мм. При наведении курсора мыши на число - период времени, за который выпало указанное количество осадков.
R24 - Количество осадков - Количество выпавших осадков за 24 часа, мм.
S - Снежный покров - Высота снежного покрова, см. При наведении курсора мыши на число - состояние снежного покрова и степень покрытия местности в баллах.